User: anonymous   Login
Location: Frydek-Mistek
(49.6830°N, 18.3330°E)
Time: 13:06:25
(UTC+02:00)
Language:

Courier 1B Rocket - Orbit

View from above orbital plane
View from above orbital plane
View from above satellite
View from above satellite

Ground track
Ground track

The orbit data is extracted from the following two-line orbital elements,

1 00059U 60013B   17291.10453980  .00000117  00000-0  43040-4 0  9998
2 00059  28.2470 177.9961 0189113  36.7455 324.5894 13.52954033815196
Epoch (UTC): 18 October 2017 02:30:32
Eccentricity: 0.0189113
inclination: 28.2470°
perigee height: 921 km
apogee height: 1202 km
right ascension of ascending node: 177.9961°
argument of perigee: 36.7455°
revolutions per day: 13.52954033
mean anomaly at epoch: 324.5894°
orbit number at epoch: 81519

The dashed part of the orbit path shows where the satellite is in the earth's shadow,  

DLR